Back to catalog

STARLINK-30565

AliveCommunicationsVLEO
NORAD 58034·PAYLOAD·🇺🇸 United States

Launched Oct 9, 2023 from Vandenberg Space Force Base

Loading…

Next Passes (next 24 hours)

TLE

FreshSource: CelesTrak SupGP

Epoch: Sep 14, 2026, 21:37 UTC

1 58034C 23156G   26257.90118056  .00046425  00000+0  13719-2 0  2579
2 58034  53.1569 277.5879 0001169  91.3258 130.4232 15.34360574    15

Track STARLINK-30565 in real time with AllMySat

Download on the App Store